Sexton Summit, OR

4:04 AM PDT on March 30, 2017 (GMT -0700)
Sexton Summit

Weather History for KSXT - February, 2014

Change the Weather History Date:

Wednesday, February 5, 2014

  Actual Average Record
Temperature  
Mean Temperature 30 °F -  
Max Temperature 35 °F 39 °F 46 °F (2015)
Min Temperature 26 °F 30 °F 26 °F (2014)
Degree Days  
Heating Degree Days 34    
Moisture  
Dew Point 22 °F    
Average Humidity 72    
Maximum Humidity 88    
Minimum Humidity 59    
Precipitation  
Precipitation 0.00 in - - ()
Sea Level Pressure  
Sea Level Pressure 30.10 in    
Wind  
Wind Speed 2 mph (NNE)    
Max Wind Speed 6 mph    
Max Gust Speed -    
Visibility 10 miles    
Events      
Averages and records for this station are not official NWS values.
T = Trace of Precipitation, MM = Missing Value Source: NWS Daily Summary

Daily Weather History Graph

Daily Weather History Graph

Search for Another Location

Airport or City:

Trip Planner

Search our weather history database for the weather conditions in past years. The results will help you decide how hot, cold, wet, or windy it might be!

Date:

Astronomy

Feb. 05, 2014 Rise Set
Actual Time 7:23 AM PST 5:32 PM PST
Civil Twilight 6:53 AM PST 6:02 PM PST
Nautical Twilight 6:19 AM PST 6:35 PM PST
Astronomical Twilight 5:47 AM PST 7:08 PM PST
Moon 10:31 AM PST (2/5) No Moon Set
Length of Visible Light 11h 08m
Length of Day
10h 09m
Waxing Crescent, 40% of the Moon is Illuminated
Feb 5
Waxing Crescent
Feb 6
First Quarter
Feb 14
Full
Feb 22
Last Quarter
Mar 1
New

Hourly Weather History & Observations

Time (PST) Temp. Windchill Dew Point Humidity Pressure Visibility Wind Dir Wind Speed Gust Speed Precip Events Conditions
12:03 AM 26.1 °F 19.4 °F 21.9 °F 84% 30.08 in 10.0 mi NNW 5.8 mph - N/A   Mostly Cloudy
12:56 AM 26.1 °F 19.4 °F 23.0 °F 88% 30.17 in 10.0 mi North 5.8 mph - N/A   Overcast
1:56 AM 26.1 °F - 21.0 °F 81% 30.17 in 10.0 mi Calm Calm - N/A   Overcast
2:56 AM 27.0 °F - 19.9 °F 75% 30.15 in 10.0 mi Calm Calm - N/A   Overcast
3:56 AM 27.0 °F - 19.9 °F 75% 30.17 in 10.0 mi Calm Calm - N/A   Overcast
4:56 AM 27.0 °F - 21.0 °F 78% 30.18 in 10.0 mi Calm Calm - N/A   Overcast
5:56 AM 26.1 °F - 21.0 °F 81% 30.18 in 10.0 mi Calm Calm - N/A   Mostly Cloudy
6:56 AM 27.0 °F - 19.9 °F 75% 30.18 in 10.0 mi Calm Calm - N/A   Overcast
7:56 AM 27.0 °F 23.0 °F 19.9 °F 75% 30.17 in 10.0 mi SE 3.5 mph - N/A   Overcast
8:24 AM 27.0 °F - 21.9 °F 81% 30.06 in 10.0 mi Calm Calm - N/A   Scattered Clouds
8:56 AM 28.0 °F - 21.9 °F 78% 30.18 in 10.0 mi Calm Calm - N/A   Mostly Cloudy
9:22 AM 30.0 °F 26.5 °F 21.9 °F 72% 30.07 in 10.0 mi Variable 3.5 mph - N/A   Scattered Clouds
9:56 AM 28.0 °F - 21.9 °F 78% 30.17 in 10.0 mi Calm Calm - N/A   Clear
10:56 AM 30.9 °F - 23.0 °F 72% 30.15 in 10.0 mi Calm Calm - N/A   Mostly Cloudy
11:56 AM 35.1 °F - 24.1 °F 64% 30.13 in 10.0 mi North - - N/A   Partly Cloudy
12:56 PM 34.0 °F - 23.0 °F 64% 30.11 in 10.0 mi North - - N/A   Clear
1:56 PM 33.1 °F - 23.0 °F 66% 30.09 in 10.0 mi North - - N/A   Mostly Cloudy
2:56 PM 34.0 °F - 21.0 °F 59% 30.06 in 10.0 mi North - - N/A   Overcast
3:56 PM 33.1 °F - 21.9 °F 64% 30.06 in 10.0 mi North - - N/A   Overcast
4:56 PM 30.9 °F - 24.1 °F 76% 30.06 in 10.0 mi North - - N/A   Overcast
5:56 PM 32.0 °F - 21.0 °F 64% 30.05 in 10.0 mi North - - N/A   Overcast
6:56 PM 32.0 °F - 21.0 °F 64% 30.04 in 10.0 mi North - - N/A   Overcast
7:56 PM 30.9 °F - 21.9 °F 69% 30.03 in 10.0 mi North - - N/A   Overcast
8:56 PM 32.0 °F - 21.0 °F 64% 30.01 in 10.0 mi North - - N/A   Overcast
9:56 PM 30.9 °F - 21.0 °F 67% 30.00 in 10.0 mi North - - N/A   Overcast
10:56 PM 32.0 °F - 21.9 °F 66% 29.96 in 10.0 mi North - - N/A   Overcast
11:56 PM 32.0 °F - 21.9 °F 66% 29.94 in 10.0 mi North - - N/A   Overcast